Regional Weather Roundup
Issued by NWS Wakefield, VA

Home | Current Version | Previous Version | Graphics & Text | Print | Product List | Glossary On
Versions: 1 2 3 4 5 6 7 8 9 10 11 12 13 14 15 16 17 18 19 20 21 22 23 24 25 26 27
000
ASUS41 KAKQ 282315
RWRAKQ

REGIONAL WEATHER ROUNDUP
NATIONAL WEATHER SERVICE WAKEFIELD VA
700 PM EDT SAT MAY 28 2016

Note: "fair" indicates few or no clouds below 12,000 feet with no
significant weather and/or obstructions to visibility. * = Denotes
station may not report precipitation (e.g., rain,snow,etc.),
thunder or fog.

VAZ042-051-052>054-056-290000-
NORTHERN VIRGINIA

CITY           SKY/WX    TMP DP  RH WIND       PRES   REMARKS
WASH NATIONAL  FAIR      82  68  62 S10       30.10R
DULLES         PTSUNNY   84  61  45 S9        30.10R
FORT BELVOIR   FAIR      83  66  55 SE5       30.10S
QUANTICO       FAIR      80  69  69 S13       30.11R
FREDERICKSBRG* FAIR      85  65  51 S10       30.10R
STAFFORD*      FAIR      83  60  45 S6        30.15R
WARRENTON      FAIR      83  61  47 CALM      30.11R
CULPEPER*      FAIR      85  66  51 S3        30.11S
MANASSAS*      SUNNY     82  68  61 S6        30.10R
LEESBURG*      FAIR      88  64  45 S8G18     30.10S
WINCHESTER     FAIR      82  64  54 S6        30.10S
FRONT ROYAL*   FAIR      82  64  54 S5        30.09S
LURAY*         FAIR      82  61  47 S5        30.12R
$$

VAZ048-049-060>072-079>083-290000-
CENTRAL AND SOUTH CENTRAL VIRGINIA

CITY           SKY/WX    TMP DP  RH WIND       PRES   REMARKS
RICHMOND       PTSUNNY   82  55  39 SE6       30.12S
CHESTERFIELD*  FAIR      82  54  36 SW3       30.14R
PETERSBURG*    FAIR      85  57  39 CALM      30.13S
HANOVER        FAIR      82  54  37 SE3       30.14R
TAPPAHANNOCK*  FAIR      84  52  33 S6        30.14R
QUINTON*       FAIR      83  59  43 CALM      30.12S
CHARLOTTSVILLE FAIR      84  61  45 S9        30.12R
GORDONSVILLE*  FAIR      83  64  52 CALM      30.12R
ORANGE*        FAIR      84  61  45 NE6       30.14R
LOUISA*        FAIR      86  66  51 CALM      30.12R
BUMPASS*       FAIR      82  63  52 CALM      30.12S
FARMVILLE*     NOT AVBL
CREWE*         FAIR      81  59  45 CALM      30.13S
FORT PICKETT*  NOT AVBL
CHASE CITY*    FAIR      82  54  37 CALM      30.14R
CLARKSVILLE*   FAIR      82  59  44 CALM      30.12S
SOUTH HILL*    FAIR      81  60  48 SE3       30.18S
LAWRENCEVILLE* FAIR      83  60  45 CALM      30.13R
EMPORIA*       FAIR      82  61  47 CALM      30.13S
$$

VAZ088>098-290000-
SOUTHEAST VIRGINIA

CITY           SKY/WX    TMP DP  RH WIND       PRES   REMARKS
NORFOLK        FAIR      78  54  43 SE9       30.13S
VIRGINIA BEACH PTSUNNY   78  64  61 SE9       30.14S
NORFOLK NAVAL  FAIR      79  61  53 SE8       30.15R
WEST POINT*    FAIR      80  63  55 E9        30.14S
SALUDA*        FAIR      78  66  66 SE6       30.14R
NEWPORT NEWS   FAIR      77  65  66 E9        30.13S
LANGLEY AFB    FAIR      77  64  65 E12       30.13S
FORT EUSTIS    FAIR      81  66  59 E6        30.11S
WILLIAMSBURG*  FAIR      82  66  57 SE7       30.13S
HR EXEC AP*    FAIR      79  63  57 SE8       30.15R
FRANKLIN*      FAIR      83  60  44 SE7       30.12S
US460-WAKEFLD  FAIR      83  63  50 E5        30.12S
$$

VAZ020-022-025-037-045-290000-
WEST CENTRAL AND SOUTHWEST VIRGINIA

CITY           SKY/WX    TMP DP  RH WIND       PRES   REMARKS
STAUNTON*      FAIR      80  62  55 S8        30.16R
WAYNESBORO*    FAIR      79  61  53 S7        30.15S
HOT SPRINGS VA FAIR      72  57  59 S5        30.26S
LYNCHBURG      FAIR      79  60  52 S6        30.15S
DANVILLE       FAIR      82  57  42 VRB3      30.13S
SOUTH BOSTON*  FAIR      82  56  40 E3        30.13S
MARTINSVILLE   FAIR      78  62  58 E5        30.17S
ROANOKE        PTSUNNY   80  60  50 SE9       30.16S
BLACKSBURG     FAIR      78  58  48 SE8       30.22R
DUBLIN*        CLOUDY    79  59  50 S5        30.20R
MARION*        FAIR      74  57  54 SE3       30.23R
HILLSVILLE*    FAIR      73  58  60 S3        30.21S
RICHLANDS*     MOCLDY    77  65  67 SE3       30.19S
WISE*          FAIR      81  45  28 CALM      30.20F
ABINGDON*      FAIR      81  56  42 CALM      30.16S
$$

MDZ021>025-VAZ099-100-290000-
SOUTHERN MARYLAND AND THE DELMARVA PENINSULA

CITY           SKY/WX    TMP DP  RH WIND       PRES   REMARKS
PATUXENT RIVER MOSUNNY   78  56  46 SE7       30.13R
BAY BRIDGE APT SUNNY     82  59  44 S10       30.12R
LEONARDTOWN    CLOUDY    81  52  36 SE5       30.15R
DOVER          SUNNY     85  68  56 SW8       30.11R
GEORGETOWN     SUNNY     82  56  40 S8        30.14R
EASTON         SUNNY     82  66  57 S10       30.17R
CAMBRIDGE      SUNNY     79  50  36 S3        30.13S
SALISBURY      SUNNY     80  58  46 SE10      30.14R
OCEAN CITY     SUNNY     71  64  78 S8        30.16R
WALLOPS ISLAND FAIR      74  64  71 S10       30.16S
ACCOMACK*      FAIR      77  59  53 S9        30.15S
$$

NCZ012>017-030>032-290000-
NORTH CENTRAL AND EASTERN NORTH CAROLINA

CITY           SKY/WX    TMP DP  RH WIND       PRES   REMARKS
ROANOKE RAPIDS FAIR      82  61  47 E5        30.11S
RALEIGH        MOSUNNY   85  58  39 SE3       30.11F
ELIZABETH CITY SUNNY     77  66  68 E12       30.15S
AHOSKIE*       CLOUDY    80  65  60 SE5       30.13R
EDENTON*       SUNNY     79  72  80 E9        30.14S
CURRITUCK*     SUNNY     77  66  67 SE5       30.15S
KILL DEVIL HLS PTSUNNY   77  66  69 E5        30.14S
MANTEO         NOT AVBL
CAPE HATTERAS  CLOUDY    76  69  79 E7        30.14S
TARBORO*       FAIR      84  68  58 SE3       30.12S
GOLDSBORO      MOSUNNY   83  66  56 E6        30.09F
WASHINGTON     CLOUDY    79  64  60 SE9       30.12S
GREENVILLE     MOSUNNY   82  64  54 SE7       30.13S
NEW BERN       SUNNY     80  68  66 E10       30.13R
WILMINGTON     PTSUNNY   77  67  71 E14       30.09F
$$

VAZ048-290000-
ELSEWHERE

CITY           SKY/WX    TMP DP  RH WIND       PRES   REMARKS
HARRISBURG PA  MOSUNNY   88  67  49 S6        30.06S
BALTIMORE      MOSUNNY   81  63  54 S8        30.10R
ANNAPOLIS      SUNNY     77  58  51 S12       30.11S
ANDREWS AFB    FAIR      83  65  54 S10       30.10S
PHILADELPHIA   MOSUNNY   85  65  51 S10       30.11R
HENDERSON NC   SUNNY     79  57  48 CALM      30.13S
GREENSBORO     PTSUNNY   81  55  40 SE6       30.13R
ROCKY MOUNT    MOSUNNY   82  66  58 SE6       30.11S
$$

VAZ100-290000-
MARINE

STATION/POSITION TIME  TEMP    WIND        PRES    WAVE   SWELL
                       AIR SEA DIR/SP/G            HT/PER HT/PER
                 (UTC) (F)     (DEG/KT/KT) (MB)    (FT/S) (FT/S)
BRANDYWINE LGT   2200          180/ 19/ 21   N/A
CAPE MAY NJ      2200          170/ 12/ 18   N/A
LEWES DE         2200          180/  8/ 12   N/A
15NM E FENWICK I 2250   68 63              1021.3R   2/ 8
OCEAN-CITY-INLET 2200          200/  7/  9   N/A
WACHAPREAGUE VA  2200          180/  9/ 11   N/A
THOMAS POINT MD  2300   74 67  170/ 16/ 17 1021.0R
GOOSES REEF MD   2300   73 68  160/ 12/ 14 1021.1R   2/ 3
COVE POINT MD    2200          190/ 13/ 14   N/A
SOLOMONS ISLAND  2200          120/ 11/ 12   N/A
BISHOPS HEAD MD  2200          160/  8/ 10   N/A
PINEY POINT MD   2200          150/ 12/ 13   N/A
POTOMAC MD       2300   74 71  180/ 10/ 12 1019.6R   1/ 2
CAMBRIDGE MD     2200          150/  6/ 12   N/A
LEWISETTA VA     2200          150/ 10/ 11   N/A
RAPPAHANNOCK LGT 2200          140/ 11/ 12   N/A
STINGRAY PT      2300   73 70  180/ 10/ 10 1021.0R   1/ 2
YORK RVR RNG VA  2200          130/ 14/ 16   N/A
YORKTOWN VA      2200          120/ 11/ 13   N/A
JAMESTOWN VA     2300   81 75  110/ 10/ 12   N/A     0
DOMINION TERM VA 2200          120/  9/ 11   N/A
KIPTOPEKE VA     2200          150/ 12/ 14   N/A
CHES BAY BRIDGE  2200          110/  7/ 12   N/A
CAPE HENRY VA    2200          140/ 10/ 13   N/A
CHESAPEAKE LGHT  2200   71     120/ 15/ 15 1021.5F
WILLOUBY STN VA  2200          100/ 13/ 15   N/A
CAPE HENRY BUOY  2212      70                N/A     2/ 9
1ST LANDING BUOY 2300   71 71  130/ 10/ 12 1020.7R   1/ 3
CAPE CHARLES BUO 2226      69                N/A     2/ 9   2/ 9
OFFSHORE WE BUOY 2221      71                N/A     3/ 8   2/ 8
64NM E OF VA BCH 2250   72 67   80/  4/  6 1020.9F   3/ 8   3/ 8
DUCK PIER NC     2200           90/ 11/ 13   N/A
44100 DUCK FRF   2224      70                N/A     3/ 9
44056 DUCK FRF   2211      68                N/A     2/ 8
OREGON INLET NC  2200           50/  7/ 10   N/A
HATTERAS NC      2200           90/  8/ 13   N/A
DIAMOND SHLS NC  2250   78 79  120/ 10/ 12 1020.2F   5/ 8   5/ 8
CAPE LOOKOUT NC  2300   75      60/ 10/ 1C1F1C2F2C3F3C4F4C5F5C6F6C7F7C8M1C9!



USA.gov is the U.S. government's official web portal to all federal, state and local government web resources and services.